DW7857 Weather Reports


time (UTC)temp
C
wind
direction
speed
KPH
gust
KPH
rain 1hr
cm
rain 24hr
cm
rain mn
cm
humidity
%
barometer
mb
20190617051027 13 190 14.5 17.7 0.00 0.05 0.03 89 1013.4
20190617050027 13 154 12.9 17.7 0.00 0.05 0.03 89 1013.2
20190617045027 13 199 12.9 22.5 0.00 0.05 0.03 89 1013.1
20190617044027 13 214 12.9 19.3 0.00 0.10 0.03 89 1013.0
20190617043027 13 216 9.7 14.5 0.00 0.10 0.03 89 1013.0
20190617042027 13 178 8.0 11.3 0.00 0.10 0.03 89 1013.0
20190617041027 13 205 14.5 19.3 0.00 0.13 0.03 89 1012.9
20190617040027 13 200 12.9 19.3 0.00 0.13 0.03 89 1012.9
20190617035027 13 223 12.9 24.1 0.00 0.18 0.03 89 1012.8
20190617034027 13 209 12.9 19.3 0.00 0.18 0.03 89 1012.8
20190617033027 13 227 9.7 12.9 0.03 0.18 0.03 88 1013.0
20190617032027 13 228 12.9 14.5 0.03 0.18 0.03 88 1012.9
20190617031027 13 249 8.0 14.5 0.03 0.18 0.03 88 1013.0
20190617030027 13 234 12.9 14.5 0.03 0.18 0.03 88 1012.9
20190617025027 13 239 11.3 17.7 0.03 0.18 0.03 87 1012.9
20190617024027 13 223 9.7 12.9 0.03 0.18 0.03 87 1013.0
20190617023027 13 328 9.7 12.9 0.00 0.15 0.00 87 1013.0
20190617022027 13 201 16.1 20.9 0.00 0.15 0.00 86 1012.9
20190617021027 13 164 17.7 24.1 0.00 0.15 0.00 86 1012.9
20190617020027 13 190 17.7 24.1 0.00 0.15 0.00 86 1013.1
20190617015027 13 218 16.1 25.7 0.00 0.15 0.00 86 1013.2
20190617014027 13 214 19.3 25.7 0.00 0.15 0.00 86 1013.1
20190617013027 13 171 14.5 17.7 0.00 0.15 0.00 86 1013.3
20190617012027 13 200 16.1 24.1 0.00 0.15 0.00 86 1013.0
20190617011027 13 194 16.1 24.1 0.00 0.15 0.00 86 1013.2
20190617010027 13 267 19.3 25.7 0.00 0.15 0.00 86 1013.2
20190617005018 13 226 14.5 17.7 0.00 0.15 0.00 86 1013.3
20190617004027 13 206 17.7 22.5 0.00 0.15 0.00 87 1013.2
20190617003027 13 193 19.3 25.7 0.00 0.15 0.00 86 1013.2
20190617002028 13 197 14.5 19.3 0.00 0.15 0.00 86 1013.5
20190617001027 13 223 17.7 24.1 0.00 0.15 0.00 86 1013.4
20190617000021 13 216 19.3 30.6 0.00 0.15 0.00 86 1013.4
20190616235028 13 233 19.3 24.1 0.00 0.15 0.15 86 1013.5
20190616234028 13 203 16.1 25.7 0.00 0.15 0.15 85 1013.4
20190616233028 13 190 14.5 22.5 0.00 0.15 0.15 85 1013.5
20190616232027 13 147 16.1 22.5 0.00 0.15 0.15 85 1013.5
20190616231027 13 196 14.5 24.1 0.00 0.15 0.15 85 1013.6
20190616230027 13 190 17.7 24.1 0.00 0.15 0.15 85 1013.4
20190616225028 13 205 14.5 19.3 0.00 0.15 0.15 84 1013.7
20190616224027 13 198 14.5 19.3 0.00 0.15 0.15 84 1013.8
20190616223028 13 196 17.7 27.4 0.00 0.15 0.15 84 1013.7
20190616222027 13 199 14.5 17.7 0.00 0.15 0.15 84 1013.7
20190616221027 13 215 16.1 19.3 0.00 0.15 0.15 84 1013.6
20190616220027 13 201 16.1 29.0 0.00 0.15 0.15 84 1013.8
20190616215028 13 169 19.3 25.7 0.00 0.15 0.15 84 1013.7
20190616214027 13 215 19.3 27.4 0.00 0.15 0.15 84 1013.7
20190616213027 13 216 16.1 24.1 0.00 0.15 0.15 84 1013.7
20190616212028 13 215 19.3 24.1 0.00 0.15 0.15 84 1013.7
20190616211027 13 214 19.3 24.1 0.00 0.15 0.15 84 1013.7
20190616210027 13 231 19.3 35.4 0.00 0.15 0.15 84 1013.7
20190616205027 13 234 17.7 24.1 0.00 0.15 0.15 84 1013.7
20190616204027 13 191 16.1 22.5 0.00 0.15 0.15 83 1013.5
20190616203029 13 194 17.7 24.1 0.00 0.15 0.15 83 1013.5
20190616202028 13 207 17.7 24.1 0.00 0.15 0.15 83 1013.5
20190616201107 13 262 11.3 17.7 0.00 0.15 0.15 82 1013.2
20190616200029 13 196 14.5 24.1 0.00 0.15 0.15 82 1013.5
20190616195029 13 127 12.9 24.1 0.00 0.15 0.15 82 1013.4
20190616194029 13 193 16.1 20.9 0.00 0.15 0.15 82 1013.3
20190616193028 14 207 17.7 29.0 0.00 0.15 0.15 81 1013.3
20190616192029 14 230 19.3 25.7 0.00 0.15 0.15 81 1013.3
20190616191028 14 151 19.3 22.5 0.00 0.15 0.15 81 1013.4
20190616190028 14 211 17.7 24.1 0.00 0.15 0.15 80 1013.2
20190616185029 14 169 17.7 27.4 0.00 0.15 0.15 80 1013.3
20190616184029 14 202 16.1 22.5 0.00 0.15 0.15 80 1013.4
20190616183029 14 222 12.9 22.5 0.00 0.15 0.15 80 1013.5
20190616182029 14 187 16.1 25.7 0.00 0.15 0.15 80 1013.5
20190616181029 14 207 16.1 27.4 0.00 0.15 0.15 79 1013.7
20190616180028 14 217 19.3 27.4 0.00 0.15 0.15 79 1013.6
20190616175029 15 166 12.9 19.3 0.00 0.15 0.15 80 1013.3
20190616174029 15 216 12.9 24.1 0.00 0.15 0.15 82 1013.3
20190616173029 14 174 17.7 24.1 0.00 0.15 0.15 81 1013.3
20190616172029 15 162 9.7 24.1 0.00 0.15 0.15 81 1013.3
20190616171028 15 192 16.1 24.1 0.00 0.15 0.15 80 1013.4
20190616170016 15 196 14.5 24.1 0.00 0.15 0.15 80 1013.3
20190616165029 15 160 14.5 25.7 0.00 0.15 0.15 77 1013.2
20190616164029 15 166 14.5 22.5 0.00 0.15 0.15 75 1013.1
20190616163028 15 179 17.7 25.7 0.00 0.15 0.15 75 1013.2
20190616162029 15 140 17.7 30.6 0.00 0.15 0.15 74 1013.3
20190616161028 16 247 19.3 27.4 0.00 0.15 0.15 72 1013.0
20190616160028 17 216 16.1 30.6 0.00 0.15 0.15 70 1013.2
20190616155029 18 177 16.1 27.4 0.00 0.15 0.15 63 1013.2
20190616154029 18 204 19.3 27.4 0.00 0.15 0.15 65 1013.1
20190616153029 18 191 20.9 29.0 0.00 0.15 0.15 61 1013.3
20190616152029 18 243 16.1 22.5 0.00 0.15 0.15 61 1013.2
20190616151029 18 223 16.1 24.1 0.00 0.15 0.15 61 1013.2
20190616150029 19 236 19.3 30.6 0.00 0.15 0.15 59 1013.3
20190616145029 20 203 14.5 20.9 0.00 0.15 0.15 60 1013.2
20190616144029 19 270 14.5 19.3 0.00 0.15 0.15 60 1013.3
20190616143029 18 162 14.5 24.1 0.00 0.15 0.15 64 1013.2
20190616142029 17 204 12.9 22.5 0.00 0.15 0.15 67 1013.1
20190616141028 17 177 14.5 25.7 0.00 0.15 0.15 72 1013.1
20190616140029 16 248 16.1 19.3 0.00 0.15 0.15 73 1013.3
20190616135028 16 277 12.9 24.1 0.00 0.15 0.15 73 1013.2
20190616134029 16 267 12.9 20.9 0.03 0.15 0.15 76 1013.2
20190616133030 16 129 17.7 25.7 0.03 0.15 0.15 76 1013.3
20190616132029 16 214 14.5 24.1 0.03 0.15 0.15 78 1013.2
20190616131028 16 241 12.9 22.5 0.03 0.15 0.15 80 1013.2
20190616130029 16 225 22.5 37.0 0.03 0.15 0.15 79 1012.9
20190616125029 16 231 17.7 24.1 0.03 0.15 0.15 76 1012.9
20190616124029 17 212 16.1 29.0 0.00 0.13 0.13 67 1012.8
20190616123029 18 195 14.5 22.5 0.00 0.13 0.13 65 1013.1
20190616122029 18 214 16.1 19.3 0.00 0.13 0.13 66 1012.8
20190616121029 18 239 17.7 22.5 0.00 0.13 0.13 70 1012.7
20190616120017 17 222 12.9 19.3 0.00 0.13 0.13 73 1012.7
20190616115030 17 246 14.5 24.1 0.00 0.13 0.13 77 1012.8
20190616114030 16 314 19.3 24.1 0.00 0.13 0.13 74 1012.6
20190616113030 16 190 24.1 29.0 0.00 0.13 0.13 76 1012.5
20190616112030 16 206 17.7 27.4 0.00 0.13 0.13 73 1012.7
20190616111029 17 218 17.7 22.5 0.00 0.13 0.13 72 1012.4
20190616110017 17 198 19.3 27.4 0.00 0.13 0.13 66 1012.3
20190616105029 18 256 12.9 19.3 0.00 0.13 0.13 64 1012.2
20190616104031 18 174 17.7 27.4 0.00 0.13 0.13 67 1012.1
20190616103030 17 245 16.1 20.9 0.00 0.13 0.13 70 1012.0
20190616102030 17 204 20.9 25.7 0.00 0.13 0.13 72 1011.8
20190616101030 17 192 12.9 32.2 0.00 0.13 0.13 72 1012.0
20190616100030 17 203 16.1 24.1 0.00 0.13 0.13 72 1011.7
20190616095030 17 215 17.7 24.1 0.00 0.13 0.13 71 1011.7
20190616094030 17 241 17.7 27.4 0.00 0.13 0.13 72 1011.8
20190616093030 17 209 14.5 24.1 0.00 0.13 0.13 72 1011.8
20190616092030 17 201 12.9 16.1 0.00 0.13 0.13 68 1011.7
20190616091029 17 182 12.9 16.1 0.00 0.13 0.13 66 1011.5
20190616090030 18 233 17.7 24.1 0.00 0.13 0.13 65 1011.4
20190616085029 17 212 14.5 17.7 0.00 0.13 0.13 67 1011.5
20190616084029 17 251 14.5 17.7 0.00 0.13 0.13 69 1011.4
20190616083030 17 225 12.9 24.1 0.00 0.13 0.13 70 1011.4
20190616082030 17 212 14.5 24.1 0.00 0.13 0.13 69 1011.5
20190616081030 17 244 12.9 17.7 0.00 0.13 0.13 69 1011.5
20190616080030 17 239 9.7 12.9 0.00 0.13 0.13 72 1011.1
20190616075030 16 204 8.0 12.9 0.00 0.15 0.13 82 1011.3
20190616074030 15 215 9.7 12.9 0.00 0.15 0.13 83 1011.1
20190616073030 14 271 8.0 12.9 0.00 0.18 0.13 83 1011.0
20190616072030 14 151 11.3 17.7 0.00 0.18 0.13 84 1010.7
20190616071030 14 222 9.7 14.5 0.00 0.18 0.13 84 1010.9
20190616070030 14 229 16.1 20.9 0.00 0.18 0.13 86 1010.9
20190616065030 14 198 9.7 12.9 0.00 0.20 0.13 89 1010.8
20190616064030 13 170 9.7 16.1 0.00 0.23 0.13 90 1010.7
20190616063030 13 218 9.7 16.1 0.00 0.28 0.13 91 1010.5
20190616062031 13 204 6.4 11.3 0.00 0.28 0.13 91 1010.4
20190616061030 13 179 12.9 20.9 0.00 0.28 0.13 92 1010.5
20190616060029 13 235 14.5 20.9 0.00 0.28 0.13 92 1010.2
20190616055030 13 196 11.3 16.1 0.00 0.30 0.13 92 1010.2
20190616054030 13 170 11.3 14.5 0.03 0.30 0.13 92 1010.1
20190616053030 13 168 9.7 12.9 0.03 0.30 0.13 92 1010.1
20190616052030 13 189 12.9 20.9 0.03 0.30 0.13 92 1010.0